SB KEPS @ AMSAT $ORB08199.N 2Line Orbital Elements 08199.AMSAT
HR AMSAT ORBITAL ELEMENTS FOR AMATEUR SATELLITES IN NASA FORMAT FROM WA5QGD FORT WORTH,TX July 17, 2008 Send Subscribe/unsubscribe to KEPS at http://www.amsat.org/mailman/listinfo/keps BID: ORB08199.N
DECODE 2-LINE ELSETS WITH THE FOLLOWING KEY: 1 AAAAAU 00 0 0 BBBBB.BBBBBBBB .CCCCCCCC 00000-0 00000-0 0 DDDZ 2 AAAAA EEE.EEEE FFF.FFFF GGGGGGG HHH.HHHH III.IIII JJ.JJJJJJJJKKKKKZ KEY: A-CATALOGNUM B-EPOCHTIME C-DECAY D-ELSETNUM E-INCLINATION F-RAAN G-ECCENTRICITY H-ARGPERIGEE I-MNANOM J-MNMOTION K-ORBITNUM Z-CHECKSUM
TO ALL RADIO AMATEURS BT
AO-07 1 07530U 74089B 08198.66236850 -.00000027 00000-0 10000-3 0 02307 2 07530 101.4635 229.1716 0011757 203.6117 156.4412 12.53573684540675 AO-10 1 14129U 83058B 08198.35823128 -.00000023 00000-0 10000-3 0 05311 2 14129 025.9975 205.2854 5976638 140.6430 283.4189 02.05868145188702 UO-11 1 14781U 84021B 08198.53460991 .00000235 00000-0 38552-4 0 07220 2 14781 098.1528 233.0043 0008789 345.9073 014.1913 14.79654146308191 RS-15 1 23439U 94085A 08198.90288595 -.00000039 00000-0 10000-3 0 01730 2 23439 064.8161 086.9977 0147183 117.1632 244.4383 11.27552349558319 FO-29 1 24278U 96046B 08199.81276199 -.00000057 00000-0 -24415-4 0 8159 2 24278 098.5848 112.0967 0351208 136.2159 226.7407 13.52938445588530 SO-33 1 25509U 98061B 08198.96621531 .00000047 00000-0 -43827-5 0 02459 2 25509 031.4318 147.9729 0355428 287.4942 068.7141 14.28217360507873 AO-40 1 26609U 00072B 08198.26660400 -.00000196 00000-0 10000-3 0 916 2 26609 007.6181 072.0233 7920827 101.9699 346.3116 01.25584494 35403 VO-52 1 28650U 05017B 08198.24651824 .00000093 00000-0 18494-4 0 09837 2 28650 097.7881 264.0581 0028159 047.6968 312.6599 14.81482457172902 PO-63 1 29712U 07001D 08199.17073255 .00000427 00000-0 62950-4 0 6240 2 29712 097.8737 256.7931 0012996 286.6583 073.3207 14.80212581 81904 AO-16 1 20439U 90005D 08198.49144889 -.00000002 00000-0 14336-4 0 03702 2 20439 098.2307 177.0575 0011929 088.5180 271.7372 14.31798154965117 LO-19 1 20442U 90005G 08198.53390113 .00000010 00000-0 18684-4 0 02969 2 20442 098.2006 185.5458 0012963 086.5683 273.6989 14.32036525965276 AO-27 1 22825U 93061C 08198.46377567 .00000086 00000-0 50309-4 0 00186 2 22825 098.3852 157.3901 0008446 168.2996 191.8393 14.29243432771952 IO-26 1 22826U 93061D 08199.42266789 -.00000010 00000-0 12483-4 0 7240 2 22826 098.3779 159.2084 0009019 162.6179 197.5323 14.29492024772187 PO-28 1 22829U 93061G 08197.92520654 -.00000041 00000-0 44394-6 0 09952 2 22829 098.3644 158.8664 0010306 139.9805 220.2088 14.30192869772238 GO-32 1 25397U 98043D 08198.70981132 -.00000075 00000-0 -14835-4 0 6487 2 25397 098.3620 232.4116 0001931 127.7841 232.3519 14.23145443520417 NO-44 1 26931U 01043C 08198.53067293 .00000180 00000-0 10259-3 0 09292 2 26931 067.0513 209.0631 0007256 269.1232 090.9037 14.29529019354609 SO-50 1 27607U 02058C 08199.45594510 -.00000083 00000-0 95937-5 0 6534 2 27607 064.5604 321.7119 0086245 273.5881 085.5351 14.71368018299424 CO-55 1 27844U 03031E 08198.66652728 .00000026 00000-0 32482-4 0 03535 2 27844 098.7149 206.5227 0010884 035.5371 324.6532 14.20587945261621 CO-57 1 27848U 03031J 08198.52769979 .00000016 00000-0 27822-4 0 03037 2 27848 098.7163 205.4766 0010598 038.9290 321.2642 14.20396476261572 AO-51 1 28375U 04025K 08199.33151823 -.00000005 00000-0 11123-4 0 1506 2 28375 098.0692 222.2042 0085285 061.3066 299.6663 14.40613420212747 CO-56 1 28941U 06005C 08199.38894990 .00011231 26115-5 85767-4 0 2260 2 28941 098.1097 314.2648 0160693 291.2726 067.1593 15.58203573134741 CP4 1 31122U 07012F 08198.93632733 .00000550 00000-0 13192-3 0 03905 2 31122 098.0415 263.4246 0084557 235.6351 123.6753 14.55142825066409 CP3 1 31128U 07012M 08198.82986249 -.00000048 00000-0 00000-0 0 03839 2 31128 098.0398 261.0154 0101665 242.6451 116.4367 14.51960030066230 NOAA-10 1 16969U 86073A 08198.94673604 .00000077 00000-0 49669-4 0 02052 2 16969 098.7213 220.8551 0013260 093.6092 266.6603 14.27364341135684 NOAA-11 1 19531U 88089A 08199.36391398 .00000237 00000-0 14513-3 0 2397 2 19531 098.7982 288.2690 0011311 346.6172 013.4677 14.14874117 22173 NOAA-12 1 21263U 91032A 08199.45325105 .00000134 00000-0 75310-4 0 7560 2 21263 098.7659 201.4023 0013223 041.3993 318.8197 14.25539435892706 MET-3/5 1 21655U 91056A 08198.97311809 .00000051 00000-0 10000-3 0 04641 2 21655 082.5528 083.3444 0012852 304.8295 055.1618 13.17015943813503 MET-2/21 1 22782U 93055A 08198.78590062 -.00000017 00000-0 -29135-4 0 01992 2 22782 082.5475 088.1016 0021706 203.8225 156.1935 13.83630865751226 OKEAN-4 1 23317U 94066A 08198.75240143 .00000080 00000-0 69181-5 0 6415 2 23317 082.5403 287.4823 0023285 033.8257 326.4457 14.82623083742665 NOAA-14 1 23455U 94089A 08198.84815872 -.00000274 00000-0 -12132-3 0 02257 2 23455 098.9454 271.1073 0010279 064.3295 295.8948 14.13743243698548 SICH-1 1 23657U 95046A 08199.40430609 .00000090 00000-0 83585-5 0 4404 2 23657 082.5269 067.8666 0024953 024.4446 335.7959 14.81591631694697 NOAA-15 1 25338U 98030A 08199.41571177 .00000134 00000-0 76155-4 0 5465 2 25338 098.5549 190.5065 0009886 319.2467 040.7975 14.24715216529104 RESURS 1 25394U 98043A 08198.96805925 -.00000001 00000-0 17429-4 0 09806 2 25394 098.3870 241.5697 0002266 094.0975 266.0464 14.24164577520684 FENGYUN1 1 25730U 99025A 08199.90489173 .00000791 00000-0 49128-3 0 5226 2 25730 098.7213 174.6475 0022544 082.0012 278.3715 14.07728189473287 OKEAN-0 1 25860U 99039A 08198.51966346 .00000020 00000-0 10361-4 0 04203 2 25860 097.7508 187.7699 0001165 100.9017 259.2319 14.73528827483718 NOAA-16 1 26536U 00055A 08199.45425047 .00000291 00000-0 18263-3 0 165 2 26536 099.1565 189.2949 0011180 136.8615 223.3435 14.12491133403044 NOAA-17 1 27453U 02032A 08198.84490410 .00000153 00000-0 85023-4 0 00097 2 27453 098.5335 262.6111 0012192 027.0654 333.1133 14.23988587315027 NOAA-18 1 28654U 05018A 08198.83181231 .00000174 00000-0 12077-3 0 05057 2 28654 098.8665 139.3978 0013432 227.9960 132.0102 14.11177456162653 HUBBLE 1 20580U 90037B 08198.94448316 .00000275 00000-0 83767-5 0 01980 2 20580 028.4673 129.1303 0003466 338.8903 021.1541 15.00392806799451 PO-34 1 25520U 98064B 08199.58663522 .00000337 00000-0 68222-5 0 387 2 25520 028.4601 335.2537 0005529 251.7237 108.2745 15.17210546537782 ISS 1 25544U 98067A 08198.84913194 .00007081 00000-0 50499-4 0 08711 2 25544 051.6411 223.8339 0009657 022.5100 346.0819 15.75101431553201 CO-58 1 28895U 05043F 08199.41901770 .00000091 00000-0 28831-4 0 717 2 28895 098.0967 092.7073 0017215 318.4508 041.5391 14.59683204144897 NCUBE2 1 28897U 05043H 08199.24292736 .00000058 00000-0 21840-4 0 6021 2 28897 098.0931 092.4627 0016830 320.4834 039.5135 14.59854487137156 FCAL 1 29667U 06055J 08146.34060426 .11864717 12752-4 73624-4 0 9790 2 29667 051.6107 065.3702 0009039 260.8350 099.5042 16.53464210 82911 FALCON 1 30776U 07006E 08199.79868400 .00000209 00000-0 18280-4 0 3566 2 30776 035.4354 327.8386 0002086 299.3326 060.7181 15.03020163 74753 MAST 1 31126U 07012K 08198.22420802 .00000146 00000-0 44007-4 0 03779 2 31126 098.0373 261.4971 0093672 241.7907 117.3807 14.53434845066237 CAPE1 1 31130U 07012P 08198.96214997 -.00000027 00000-0 49136-5 0 03566 2 31130 098.0375 261.1463 0101499 242.3542 116.7314 14.51976242066041 CUTE1-7 1 32785U 08021C 08198.23182005 .00000363 00000-0 53240-4 0 01096 2 32785 097.9925 258.0801 0016017 044.5720 315.6777 14.81376785011704 COMPASS 1 32787U 08021E 08198.22905999 .00000275 00000-0 41969-4 0 00942 2 32787 097.9877 258.0386 0016893 046.0766 314.1837 14.81434913011708 AAUSAT2 1 32788U 08021F 08198.89867114 .00000225 00000-0 35538-4 0 01044 2 32788 097.9872 258.7168 0016755 047.6829 312.5794 14.81544013011801 DO-64 1 32789U 08021G 08198.90544276 .00000125 00000-0 22779-4 0 01141 2 32789 097.9901 258.7407 0016639 044.5300 315.7241 14.81429221011807 SEEDS 1 32791U 08021J 08198.43916506 .00000181 00000-0 30092-4 0 00981 2 32791 097.9913 258.2607 0017212 044.0520 316.2067 14.81292219011703 CANX-2 1 32797U 08021L 08198.82301191 .00001469 00000-0 19227-3 0 478 2 32797 097.9975 258.7216 0017745 050.5655 309.7120 14.81840117 10476 RS-30 1 32953U 08025A 08198.78871280 .00000010 00000-0 00000-0 0 00592 2 32953 082.5019 105.1851 0017977 187.5554 172.5254 12.42996798006724 /EX